Location: Wingville
(42.9917°N, 90.4915°W)
Time: 22:10:20
(UTC+00:00)

LO-87 - Pass Details

Date: 03 July 2022
Orbit: 451 x 466 km, 97.4° (Epoch: 13 August)

Event Time Altitude Azimuth Distance (km) Brightness Sun altitude
Exits shadow 05:06:26 33° 59° (ENE) 809 ? -22.6°
Drops below altitude 10° 05:09:16 10° 6° (N) 1,625 ? -22.8°
Sets 05:11:27 0° 357° (N) 2,510 ? -22.9°
